CZ-7 DEB (48805 NORAD) Tracking and Keplerian Element Data

This shows tracking and keplerian element data for the satellite.

Feedback or suggestion? Click here.




ElementValue
Catalog48805
NameCZ-7 DEB
Epoch Orbit102
Epoch Day155.94011945
Epoch Year2021
RAAN356.5182
Inclination41.1241
Eccentricity0.0113317
Argument of Perigee210.3942
Mean Anonmoly149.1661
Mean Motion16.07765891
Decay Rate0.06108302
L11 48805U 21046C 21155.94011945 .06108302 69418-5 26718-2 0 9994
L22 48805 41.1241 356.5182 0113317 210.3942 149.1661 16.07765891 1028

Live tracking and technical data element details for CZ-7 DEB (NORAD 48805). CZ-7 DEB can be tracked NOW for your location showing map with azimuth and elevation plus other details from your city location.

Track the satellite on the map from your city or location and see movement details for azimuth, elevation, latitude, longitude, range, height, and movement on the map or in text.







IsCatalogInMostPopularTable: catalog: 48805, numindb: 19
Update: records affected: 1



GetName: 48805 CZ-7 DEB

Hit Count: updated at: Tue, 03 Aug 2021 20:00:15 GMT